DW0117 Weather Reports


Display with metric or nautical units.
time (UTC)temp
F
wind
direction
speed
MPH
gust
MPH
rain 1hr
in
rain 24hr
in
rain mn
in
humidity
%
barometer
mb
20210802220500 100 245 4.0 12.0 0.00 0.00 0.00 26 1013.8
20210802220001 100 239 4.0 12.0 0.00 0.00 0.00 26 1013.8
20210802215500 100 242 3.0 13.0 0.00 0.00 0.00 25 1013.9
20210802215001 100 248 4.0 13.0 0.00 0.00 0.00 25 1014.0
20210802214502 100 247 4.0 11.0 0.00 0.00 0.00 25 1014.1
20210802213959 100 244 4.0 10.0 0.00 0.00 0.00 24 1014.2
20210802213500 100 243 5.0 11.0 0.00 0.00 0.00 25 1014.3
20210802213001 99 245 5.0 12.0 0.00 0.00 0.00 25 1014.3
20210802212459 99 247 5.0 13.0 0.00 0.00 0.00 25 1014.4
20210802212000 98 246 5.0 13.0 0.00 0.00 0.00 25 1014.5
20210802211500 99 248 5.0 14.0 0.00 0.00 0.00 24 1014.5
20210802211000 98 248 5.0 14.0 0.00 0.00 0.00 24 1014.6
20210802210459 99 245 4.0 13.0 0.00 0.00 0.00 24 1014.7
20210802210000 98 246 3.0 13.0 0.00 0.00 0.00 23 1014.8
20210802205501 99 243 4.0 12.0 0.00 0.00 0.00 23 1014.8
20210802205000 98 244 5.0 12.0 0.00 0.00 0.00 24 1014.9
20210802204500 98 247 5.0 13.0 0.00 0.00 0.00 23 1015.0
20210802203959 98 248 5.0 15.0 0.00 0.00 0.00 23 1014.9
20210802203500 98 247 5.0 15.0 0.00 0.00 0.00 23 1015.1
20210802202959 98 245 5.0 13.0 0.00 0.00 0.00 23 1015.1
20210802202459 98 245 5.0 12.0 0.00 0.00 0.00 23 1015.2
20210802202000 97 246 5.0 11.0 0.00 0.00 0.00 23 1015.2
20210802201500 97 245 5.0 13.0 0.00 0.00 0.00 22 1015.3
20210802200959 97 247 6.0 13.0 0.00 0.00 0.00 22 1015.3
20210802200500 96 246 5.0 13.0 0.00 0.00 0.00 22 1015.4
20210802200000 96 245 6.0 13.0 0.00 0.00 0.00 22 1015.4
20210802195500 96 246 6.0 14.0 0.00 0.00 0.00 23 1015.5
20210802195000 96 246 5.0 14.0 0.00 0.00 0.00 23 1015.6
20210802194500 96 244 4.0 15.0 0.00 0.00 0.00 23 1015.6
20210802194000 96 240 4.0 15.0 0.00 0.00 0.00 22 1015.6
20210802193500 96 237 4.0 10.0 0.00 0.00 0.00 22 1015.6
20210802193000 96 243 5.0 16.0 0.00 0.00 0.00 22 1015.7
20210802192501 95 247 5.0 16.0 0.00 0.00 0.00 22 1015.8
20210802192000 95 246 4.0 15.0 0.00 0.00 0.00 21 1015.8
20210802191459 95 241 4.0 13.0 0.00 0.00 0.00 21 1015.8
20210802191000 95 238 4.0 14.0 0.00 0.00 0.00 21 1015.9
20210802190501 94 242 4.0 14.0 0.00 0.00 0.00 21 1016.0
20210802185959 94 239 2.0 11.0 0.00 0.00 0.00 20 1016.0
20210802185500 94 227 2.0 11.0 0.00 0.00 0.00 20 1016.0
20210802185000 94 236 1.0 13.0 0.00 0.00 0.00 20 1016.1
20210802184500 94 233 1.0 13.0 0.00 0.00 0.00 19 1016.2
20210802184000 94 223 2.0 9.0 0.00 0.00 0.00 19 1016.2
20210802183500 94 243 2.0 11.0 0.00 0.00 0.00 19 1016.3
20210802183001 94 243 2.0 11.0 0.00 0.00 0.00 19 1016.3
20210802182501 94 241 1.0 9.0 0.00 0.00 0.00 19 1016.4
20210802182000 94 247 1.0 8.0 0.00 0.00 0.00 19 1016.4
20210802181501 93 244 0.0 8.0 0.00 0.00 0.00 19 1016.4
20210802181000 93 234 1.0 8.0 0.00 0.00 0.00 19 1016.5
20210802180501 92 236 1.0 6.0 0.00 0.00 0.00 19 1016.6
20210802175959 92 242 1.0 8.0 0.00 0.00 0.00 19 1016.7
20210802175500 92 239 1.0 8.0 0.00 0.00 0.00 19 1016.7
20210802175000 92 243 1.0 7.0 0.00 0.00 0.00 19 1016.7
20210802174500 91 247 2.0 8.0 0.00 0.00 0.00 18 1016.7
20210802174000 91 244 4.0 8.0 0.00 0.00 0.00 19 1016.7
20210802173500 90 248 4.0 10.0 0.00 0.00 0.00 19 1016.7
20210802173001 90 248 3.0 11.0 0.00 0.00 0.00 19 1016.8
20210802172500 90 246 3.0 11.0 0.00 0.00 0.00 19 1016.7
20210802172000 89 243 3.0 8.0 0.00 0.00 0.00 20 1016.7
20210802171502 88 241 3.0 7.0 0.00 0.00 0.00 21 1016.8
20210802171000 88 243 3.0 8.0 0.00 0.00 0.00 21 1016.8
20210802170500 87 241 2.0 8.0 0.00 0.00 0.00 23 1016.9
20210802170002 87 243 2.0 8.0 0.00 0.00 0.00 23 1016.9
20210802165500 87 247 3.0 8.0 0.00 0.00 0.00 22 1016.9
20210802165000 86 247 3.0 7.0 0.00 0.00 0.00 24 1016.9
20210802164502 85 249 3.0 7.0 0.00 0.00 0.00 27 1017.0
20210802164000 84 252 2.0 8.0 0.00 0.00 0.00 27 1017.1
20210802163501 84 245 1.0 8.0 0.00 0.00 0.00 28 1017.2
20210802163001 83 226 1.0 5.0 0.00 0.00 0.00 28 1017.2
20210802162500 83 235 1.0 7.0 0.00 0.00 0.00 29 1017.3
20210802162000 82 237 2.0 7.0 0.00 0.00 0.00 29 1017.4
20210802161501 82 225 1.0 6.0 0.00 0.00 0.00 29 1017.4
20210802161000 81 204 1.0 6.0 0.00 0.00 0.00 30 1017.5
20210802160500 80 182 0.0 5.0 0.00 0.00 0.00 31 1017.5
20210802160000 80 184 0.0 3.0 0.00 0.00 0.00 31 1017.5
20210802155500 79 0 0.0 0.0 0.00 0.00 0.00 32 1017.6
20210802155000 78 0 0.0 0.0 0.00 0.00 0.00 33 1017.6
20210802154500 77 0 0.0 0.0 0.00 0.00 0.00 35 1017.6
20210802154001 75 0 0.0 0.0 0.00 0.00 0.00 37 1017.6
20210802153500 74 0 0.0 0.0 0.00 0.00 0.00 39 1017.6
20210802153001 74 0 0.0 0.0 0.00 0.00 0.00 40 1017.6
20210802152502 74 0 0.0 0.0 0.00 0.00 0.00 40 1017.7
20210802152001 73 0 0.0 0.0 0.00 0.00 0.00 40 1017.7
20210802151501 73 0 0.0 0.0 0.00 0.00 0.00 41 1017.7
20210802151002 72 0 0.0 0.0 0.00 0.00 0.00 43 1017.7
20210802150500 71 0 0.0 0.0 0.00 0.00 0.00 46 1017.7
20210802150000 70 0 0.0 0.0 0.00 0.00 0.00 47 1017.7
20210802145501 69 0 0.0 0.0 0.00 0.00 0.00 50 1017.7
20210802145001 68 0 0.0 0.0 0.00 0.00 0.00 51 1017.8
20210802144500 67 0 0.0 0.0 0.00 0.00 0.00 52 1017.7
20210802144001 66 0 0.0 0.0 0.00 0.00 0.00 52 1017.8
20210802143501 66 0 0.0 0.0 0.00 0.00 0.00 52 1017.8
20210802143001 65 0 0.0 0.0 0.00 0.00 0.00 54 1017.7
20210802142501 65 0 0.0 0.0 0.00 0.00 0.00 55 1017.8
20210802142000 64 0 0.0 0.0 0.00 0.00 0.00 53 1017.7
20210802141500 64 0 0.0 0.0 0.00 0.00 0.00 55 1017.7
20210802141001 64 0 0.0 0.0 0.00 0.00 0.00 57 1017.7
20210802140500 64 0 0.0 0.0 0.00 0.00 0.00 58 1017.7
20210802140001 64 0 0.0 0.0 0.00 0.00 0.00 57 1017.6
20210802135501 63 0 0.0 0.0 0.00 0.00 0.00 56 1017.6
20210802135000 63 0 0.0 0.0 0.00 0.00 0.00 57 1017.5
20210802134500 63 0 0.0 0.0 0.00 0.00 0.00 59 1017.5
20210802134000 63 0 0.0 0.0 0.00 0.00 0.00 59 1017.4
20210802133500 63 0 0.0 0.0 0.00 0.00 0.00 58 1017.3
20210802133001 63 0 0.0 0.0 0.00 0.00 0.00 56 1017.2
20210802132500 63 0 0.0 0.0 0.00 0.00 0.00 59 1017.2
20210802132001 64 0 0.0 0.0 0.00 0.00 0.00 58 1017.3
20210802131500 64 0 0.0 0.0 0.00 0.00 0.00 58 1017.2
20210802131001 64 0 0.0 0.0 0.00 0.00 0.00 57 1017.2
20210802130500 64 0 0.0 0.0 0.00 0.00 0.00 57 1017.1
20210802130001 64 0 0.0 0.0 0.00 0.00 0.00 56 1017.1
20210802125500 64 0 0.0 0.0 0.00 0.00 0.00 56 1017.1
20210802125001 64 0 0.0 0.0 0.00 0.00 0.00 55 1017.0
20210802124500 64 0 0.0 0.0 0.00 0.00 0.00 55 1017.0
20210802124000 65 0 0.0 0.0 0.00 0.00 0.00 57 1016.8
20210802123502 65 0 0.0 0.0 0.00 0.00 0.00 57 1016.7
20210802123001 65 0 0.0 0.0 0.00 0.00 0.00 54 1016.7
20210802122500 65 0 0.0 0.0 0.00 0.00 0.00 54 1016.7
20210802122002 66 0 0.0 0.0 0.00 0.00 0.00 54 1016.6
20210802121500 66 0 0.0 0.0 0.00 0.00 0.00 53 1016.5
20210802121001 66 0 0.0 0.0 0.00 0.00 0.00 52 1016.5
20210802120501 66 0 0.0 0.0 0.00 0.00 0.00 51 1016.5
20210802120002 66 0 0.0 0.0 0.00 0.00 0.00 52 1016.4
20210802115501 67 0 0.0 0.0 0.00 0.00 0.00 52 1016.5
20210802115001 67 0 0.0 0.0 0.00 0.00 0.00 51 1016.4
20210802114500 67 0 0.0 0.0 0.00 0.00 0.00 50 1016.4
20210802114001 68 0 0.0 0.0 0.00 0.00 0.00 49 1016.4
20210802113500 68 0 0.0 0.0 0.00 0.00 0.00 48 1016.3
20210802113001 68 0 0.0 0.0 0.00 0.00 0.00 47 1016.3
20210802112501 68 0 0.0 0.0 0.00 0.00 0.00 48 1016.2
20210802112001 68 0 0.0 0.0 0.00 0.00 0.00 48 1016.3
20210802111500 68 0 0.0 0.0 0.00 0.00 0.00 47 1016.2
20210802111000 68 0 0.0 0.0 0.00 0.00 0.00 49 1016.1
20210802110502 68 0 0.0 0.0 0.00 0.00 0.00 44 1016.0
20210802110000 68 0 0.0 0.0 0.00 0.00 0.00 49 1015.9
20210802105502 68 0 0.0 0.0 0.00 0.00 0.00 47 1015.9
20210802105000 68 0 0.0 0.0 0.00 0.00 0.00 47 1015.9
20210802104501 69 0 0.0 0.0 0.00 0.00 0.00 47 1015.8
20210802104002 69 125 0.0 1.0 0.00 0.00 0.00 48 1015.9
20210802103501 69 126 0.0 2.0 0.00 0.00 0.00 48 1015.9
20210802103001 69 125 0.0 2.0 0.00 0.00 0.00 47 1015.9
20210802102500 69 125 0.0 2.0 0.00 0.00 0.00 48 1015.8
20210802102001 69 0 0.0 0.0 0.00 0.00 0.00 47 1015.9
20210802101501 69 0 0.0 0.0 0.00 0.00 0.00 48 1015.8
20210802101001 69 0 0.0 0.0 0.00 0.00 0.00 48 1015.8
20210802100500 70 0 0.0 0.0 0.00 0.00 0.00 48 1015.8
20210802100001 70 0 0.0 0.0 0.00 0.00 0.00 47 1015.8
20210802095501 70 0 0.0 0.0 0.00 0.00 0.00 47 1015.8
20210802095001 70 0 0.0 0.0 0.00 0.00 0.00 47 1015.8
20210802094501 70 0 0.0 0.0 0.00 0.00 0.00 47 1015.9
20210802094000 70 0 0.0 0.0 0.00 0.00 0.00 46 1015.8
20210802093501 70 0 0.0 0.0 0.00 0.00 0.00 47 1015.8
20210802093001 70 125 0.0 2.0 0.00 0.00 0.00 48 1015.8
20210802092502 70 125 0.0 2.0 0.00 0.00 0.00 48 1015.8
20210802092001 71 0 0.0 0.0 0.00 0.00 0.00 46 1015.8
20210802091501 71 0 0.0 0.0 0.00 0.00 0.00 46 1015.7
20210802091001 71 0 0.0 0.0 0.00 0.00 0.00 45 1015.7
20210802090501 72 0 0.0 0.0 0.00 0.00 0.00 43 1015.8
20210802090001 72 0 0.0 0.0 0.00 0.00 0.00 43 1015.7
20210802085502 72 0 0.0 0.0 0.00 0.00 0.00 43 1015.8
20210802085000 72 0 0.0 0.0 0.00 0.00 0.00 42 1015.8
20210802084501 72 0 0.0 0.0 0.00 0.00 0.00 40 1015.9
20210802084001 73 0 0.0 0.0 0.00 0.00 0.00 43 1015.9
20210802083502 73 125 0.0 3.0 0.00 0.00 0.00 41 1015.9
20210802083001 73 125 0.0 3.0 0.00 0.00 0.00 41 1015.8
20210802082501 73 0 0.0 0.0 0.00 0.00 0.00 40 1015.8
20210802082001 73 0 0.0 0.0 0.00 0.00 0.00 42 1015.8
20210802081501 73 0 0.0 0.0 0.00 0.00 0.00 41 1015.8
20210802081001 74 0 0.0 0.0 0.00 0.00 0.00 42 1015.8
20210802080500 74 0 0.0 0.0 0.00 0.00 0.00 43 1015.8
20210802080001 74 0 0.0 0.0 0.00 0.00 0.00 44 1015.8
20210802075501 74 0 0.0 0.0 0.00 0.00 0.00 43 1015.7
20210802075001 74 0 0.0 0.0 0.00 0.00 0.00 43 1015.8
20210802074503 74 0 0.0 0.0 0.00 0.00 0.00 41 1015.8
20210802074001 74 0 0.0 0.0 0.00 0.00 0.00 43 1015.8
20210802073501 74 0 0.0 0.0 0.00 0.00 0.00 45 1015.8
20210802073002 74 0 0.0 0.0 0.00 0.00 0.00 42 1015.9
20210802072501 74 0 0.0 0.0 0.00 0.00 0.00 41 1015.9
20210802072001 75 0 0.0 0.0 0.00 0.00 0.00 40 1015.9
20210802071501 75 0 0.0 0.0 0.00 0.00 0.00 43 1015.9
20210802071001 75 0 0.0 0.0 0.00 0.00 0.00 43 1015.9
20210802070502 76 0 0.0 0.0 0.00 0.00 0.00 42 1015.9
20210802070002 76 0 0.0 0.0 0.00 0.00 0.00 42 1015.9
20210802065501 76 0 0.0 0.0 0.00 0.00 0.00 41 1015.9
20210802065001 77 0 0.0 0.0 0.00 0.00 0.00 42 1015.9
20210802064501 77 0 0.0 0.0 0.00 0.00 0.00 40 1015.9
20210802064001 77 0 0.0 0.0 0.00 0.00 0.00 39 1015.8
20210802063501 77 0 0.0 0.0 0.00 0.00 0.00 36 1015.8
20210802063001 77 0 0.0 0.0 0.00 0.00 0.00 38 1015.7
20210802062501 78 0 0.0 0.0 0.00 0.00 0.00 40 1015.7
20210802062001 78 0 0.0 0.0 0.00 0.00 0.00 40 1015.6
20210802061502 78 0 0.0 0.0 0.00 0.00 0.00 38 1015.7
20210802061001 79 0 0.0 0.0 0.00 0.00 0.00 40 1015.7
20210802060502 80 0 0.0 0.0 0.00 0.00 0.00 38 1015.7
20210802060002 80 0 0.0 0.0 0.00 0.00 0.00 38 1015.7
20210802055501 81 0 0.0 0.0 0.00 0.00 0.00 32 1015.7
20210802055001 81 0 0.0 0.0 0.00 0.00 0.00 32 1015.6
20210802054502 81 0 0.0 0.0 0.00 0.00 0.00 31 1015.5
20210802054002 81 0 0.0 0.0 0.00 0.00 0.00 32 1015.5
20210802053501 81 0 0.0 0.0 0.00 0.00 0.00 37 1015.6
20210802053001 82 0 0.0 0.0 0.00 0.00 0.00 35 1015.4
20210802052501 82 0 0.0 0.0 0.00 0.00 0.00 32 1015.4
20210802052001 82 0 0.0 0.0 0.00 0.00 0.00 31 1015.4
20210802051502 83 0 0.0 0.0 0.00 0.00 0.00 35 1015.3
20210802051001 84 0 0.0 0.0 0.00 0.00 0.00 27 1015.0
20210802050502 84 0 0.0 0.0 0.00 0.00 0.00 28 1015.2
20210802050001 84 0 0.0 0.0 0.00 0.00 0.00 30 1015.3
20210802045501 84 0 0.0 0.0 0.00 0.00 0.00 33 1015.1
20210802045001 84 125 0.0 1.0 0.00 0.00 0.00 29 1014.8
20210802044502 84 125 0.0 1.0 0.00 0.00 0.00 30 1014.8
20210802044001 85 0 0.0 0.0 0.00 0.00 0.00 34 1014.7
20210802043501 85 0 0.0 0.0 0.00 0.00 0.00 29 1014.6
20210802043003 85 0 0.0 0.0 0.00 0.00 0.00 31 1014.5
20210802042501 85 0 0.0 0.0 0.00 0.00 0.00 29 1014.3
20210802042001 85 0 0.0 0.0 0.00 0.00 0.00 32 1014.4
20210802041501 85 0 0.0 0.0 0.00 0.00 0.00 34 1014.3
20210802041001 85 0 0.0 0.0 0.00 0.00 0.00 35 1014.1
20210802040503 86 0 0.0 0.0 0.00 0.00 0.00 34 1014.1
20210802040001 86 0 0.0 0.0 0.00 0.00 0.00 35 1014.0
20210802035502 87 0 0.0 0.0 0.00 0.00 0.00 35 1013.9
20210802035002 88 0 0.0 0.0 0.00 0.00 0.00 33 1013.9
20210802034502 89 0 0.0 0.0 0.00 0.00 0.00 33 1013.8
20210802034001 89 0 0.0 0.0 0.00 0.00 0.00 30 1013.6
20210802033502 90 0 0.0 0.0 0.00 0.00 0.00 31 1013.6
20210802033001 90 0 0.0 0.0 0.00 0.00 0.00 31 1013.4
20210802032501 91 0 0.0 0.0 0.00 0.00 0.00 31 1013.3
20210802032002 92 0 0.0 0.0 0.00 0.00 0.00 29 1013.3
20210802031501 92 0 0.0 0.0 0.00 0.00 0.00 28 1013.2
20210802031002 93 0 0.0 0.0 0.00 0.00 0.00 27 1013.2
20210802030501 94 0 0.0 0.0 0.00 0.00 0.00 29 1013.2
20210802030002 95 0 0.0 0.0 0.00 0.00 0.00 30 1013.1
20210802025502 96 216 0.0 1.0 0.00 0.00 0.00 29 1013.1
20210802025001 97 216 0.0 1.0 0.00 0.00 0.00 22 1013.1
20210802024503 97 0 0.0 0.0 0.00 0.00 0.00 22 1013.1
20210802024001 97 0 0.0 0.0 0.00 0.00 0.00 21 1012.9
20210802023502 98 0 0.0 0.0 0.00 0.00 0.00 21 1012.9
20210802023002 98 0 0.0 0.0 0.00 0.00 0.00 21 1012.9
20210802022502 98 0 0.0 0.0 0.00 0.00 0.00 21 1012.9
20210802022002 98 0 0.0 0.0 0.00 0.00 0.00 21 1012.9
20210802021502 99 0 0.0 0.0 0.00 0.00 0.00 21 1012.8
20210802021002 99 246 1.0 2.0 0.00 0.00 0.00 20 1012.7
20210802020502 100 246 1.0 3.0 0.00 0.00 0.00 21 1012.8
20210802020002 100 245 1.0 4.0 0.00 0.00 0.00 20 1012.8
20210802015502 101 243 1.0 4.0 0.00 0.00 0.00 19 1012.7
20210802015001 102 248 2.0 6.0 0.00 0.00 0.00 19 1012.7
20210802014501 102 249 2.0 7.0 0.00 0.00 0.00 18 1012.5
20210802013501 103 243 2.0 7.0 0.00 0.00 0.00 17 1012.5
20210802012502 104 238 2.0 9.0 0.00 0.00 0.00 17 1012.5
20210802012002 104 238 2.0 9.0 0.00 0.00 0.00 16 1012.5
20210802011502 105 241 2.0 7.0 0.00 0.00 0.00 16 1012.4
20210802011002 105 248 1.0 8.0 0.00 0.00 0.00 15 1012.5
20210802010501 105 249 1.0 8.0 0.00 0.00 0.00 14 1012.5
20210802010003 105 247 1.0 7.0 0.00 0.00 0.00 16 1012.5
20210802005502 105 241 2.0 7.0 0.00 0.00 0.00 15 1012.6
20210802005002 106 242 2.0 8.0 0.00 0.00 0.00 15 1012.7
20210802004502 105 243 1.0 9.0 0.00 0.00 0.00 15 1012.7
20210802004002 106 240 1.0 9.0 0.00 0.00 0.00 16 1012.8
20210802003502 106 238 2.0 8.0 0.00 0.00 0.00 14 1012.8
20210802003003 106 246 2.0 5.0 0.00 0.00 0.00 15 1012.9
20210802002502 106 246 2.0 8.0 0.00 0.00 0.00 16 1012.8
20210802002002 106 243 2.0 8.0 0.00 0.00 0.00 15 1012.7
20210802001503 106 240 2.0 11.0 0.00 0.00 0.00 16 1012.8
20210802001002 106 238 2.0 11.0 0.00 0.00 0.00 14 1012.8
20210802000502 106 241 2.0 8.0 0.00 0.00 0.00 13 1012.9
20210802000002 106 247 3.0 10.0 0.00 0.00 0.00 14 1012.7
20210801235502 106 243 3.0 10.0 0.00 0.00 0.00 16 1012.9
20210801235002 106 239 2.0 9.0 0.00 0.00 0.00 16 1013.0
20210801234502 107 236 2.0 9.0 0.00 0.00 0.00 16 1013.0
20210801234002 107 243 3.0 8.0 0.00 0.00 0.00 15 1013.0
20210801233502 106 245 3.0 10.0 0.00 0.00 0.00 14 1012.9
20210801233003 106 242 3.0 12.0 0.00 0.00 0.00 16 1012.9
20210801232503 106 242 3.0 12.0 0.00 0.00 0.00 15 1013.0
20210801232002 106 241 3.0 14.0 0.00 0.00 0.00 17 1013.0
20210801231502 106 242 4.0 14.0 0.00 0.00 0.00 17 1013.1
20210801231002 105 245 4.0 10.0 0.00 0.00 0.00 14 1012.9
20210801230502 105 245 4.0 10.0 0.00 0.00 0.00 18 1013.0
20210801230002 106 245 4.0 11.0 0.00 0.00 0.00 18 1013.0
20210801225502 106 247 4.0 12.0 0.00 0.00 0.00 17 1013.2
20210801225002 106 248 4.0 12.0 0.00 0.00 0.00 17 1013.1
20210801224502 106 250 3.0 12.0 0.00 0.00 0.00 17 1013.2
20210801224002 106 248 2.0 12.0 0.00 0.00 0.00 17 1013.4
20210801223502 106 239 2.0 11.0 0.00 0.00 0.00 17 1013.3
20210801223002 106 239 3.0 11.0 0.00 0.00 0.00 18 1013.4
20210801222002 104 249 3.0 9.0 0.00 0.00 0.00 19 1013.5
20210801221503 104 251 4.0 9.0 0.00 0.00 0.00 20 1013.6
20210801221002 104 255 4.0 10.0 0.00 0.00 0.00 20 1013.6